Overview Statistics Trail Chart Weather Telemetry Raw packets
 

This is the latest recevied weather packets stored in our database for station/object PY5AL-13. If no packets are shown the sender has not sent any weather packets the latest 10 day(s).

<< 1 2 3 4 5 6 7 >>
Time Temp. Humidity Pressure Rain* Wind** Luminosity Snow
1777779253 23.89° C 70% 1020.5 hPa - - - -
1777778053 24.44° C 71% 1020.4 hPa - - - -
1777776853 24.44° C 71% 1020.6 hPa - - - -
1777775653 25° C 69% 1020.6 hPa - - - -
1777774453 24.44° C 70% 1020.5 hPa - - - -
1777773253 24.44° C 71% 1020.4 hPa - - - -
1777772053 24.44° C 71% 1020.3 hPa - - - -
1777770853 24.44° C 74% 1020.1 hPa - - - -
1777769653 24.44° C 74% 1020.1 hPa - - - -
1777768453 24.44° C 76% 1019.9 hPa - - - -
1777767253 25° C 74% 1019.4 hPa - - - -
1777766054 25° C 69% 1019.1 hPa - - - -
1777764853 25.56° C 70% 1019.5 hPa - - - -
1777763654 25.56° C 70% 1018.3 hPa - - - -
1777762454 25.56° C 69% 1019 hPa - - - -
1777761254 25° C 69% 1018.5 hPa - - - -
1777760054 25.56° C 67% 1017.7 hPa - - - -
1777758854 25.56° C 67% 1017.6 hPa - - - -
1777757654 25.56° C 66% 1018.2 hPa - - - -
1777756454 25.56° C 64% 1018.7 hPa - - - -
1777755255 25.56° C 63% 1018.5 hPa - - - -
1777754054 25.56° C 60% 1018.3 hPa - - - -
1777752854 25.56° C 62% 1017.4 hPa - - - -
1777751654 25.56° C 61% 1016.9 hPa - - - -
1777750469 24.44° C 63% 1016.4 hPa - - - -

* Rain since midnight (hover to see other rain measurements)
** Current wind speed in m/s (hover to see current wind gust speed)